Find Starlink 31631

NORAD ID: 59459 Int'l Des: 2024-068 Owner: SPXS Country: US Constellation: starlink operational
LEOCIRCULAR

Current View

Loading 3D Globe...

About Starlink 31631

Starlink 31631 (NORAD 59459) is a starlink constellation satellite (v2 mini) launched Apr 10, 2024 by SPXS of US. It operates in LEO, CIRCULAR orbit with a mass of 730.00 kg.

About Starlink 31631

Description loading...

Upcoming Passes

Passes for default location (London). Set your location on the main map for personalized predictions.

Altitude History

Loading altitude history...

Two-Line Element Set

1 59459U 24068E 26169.43422788 .00000441 00000-0 25564-4 0 9999
2 59459 43.0025 181.8217 0001690 271.9132 88.1526 15.27575547123977
Epoch: Jun 18, 2026 • Age: 20 hours

Current Status

Altitude 495.0 km
Velocity 7.62 km/s
Sub-Earth Point -42.61°S, 93.79°E
Launch Date Apr 10, 2024
Age 2.1 years
Type internet

Technical Details

Classification Payload
Mass 730.00 kg
Dry Mass 700.00 kg
Total Mass 730.00 kg
Length 0.30 m
Diameter 4.10 m
Span 29.00 m
Shape Box + pan
Manufacturer SPXS
Bus Type Starlink V2M
Phase Status In Orbit
Owner/State SPXS/US

Most Searched